Whidbey Island, WA
on Wednesday, February 20, 2013

Wednesday
Previous Day Next Day
Daily Summary
 ActualAverageRecord
Temperature
Mean Temperature °F °F  
Max Temperature 45°F 47°F 59°F (2000)
Min Temperature 33°F 33°F 23°F (2011)
Degree Days
Heating Degree Days 26    
Moisture
Dew Point 36°F   
Average Humidity 83    
Maximum Humidity 93    
Minimum Humidity 73    
Precipitation
Precipitation 0.00 in in in ()
Wind
Wind Speed 8 mph   
Max Wind Speed 15 mph   
Max Gust Speed 23 mph   
Visibility 10 miles   
Events Rain   
Averages and records for this station are not official NWS values.
Key: T is trace of precipitation, MM is missing value
Source: NWS Daily Summary
Seasonal Weather Averages
Time(PST)TemperatureDew PointHumidity Pressure Visibility Wind DirectionWind SpeedGust SpeedPrecipitationEvents Conditions
12:56 AM 34.0°F 30.9°F 89% 30.02 in 10.0 miles ESE 5.8 mph - N/A   Scattered Clouds
1:56 AM 33.1°F 30.0°F 89% 30.04 in 9.0 miles ESE 4.6 mph - N/A   Mostly Cloudy
2:56 AM 34.0°F 32.0°F 92% 30.04 in 7.0 miles ESE 5.8 mph - N/A   Mostly Cloudy
3:56 AM 37.9°F 35.1°F 89% 30.04 in 7.0 miles ESE 5.8 mph - N/A   Overcast
4:54 AM 37.4°F 35.6°F 93% 30.03 in 10.0 miles ESE 4.6 mph - N/A   Mostly Cloudy
4:56 AM 37.9°F 35.1°F 89% 30.05 in 10.0 miles ESE 4.6 mph - N/A   Mostly Cloudy
5:56 AM 39.0°F 36.0°F 89% 30.04 in 10.0 miles SE 8.1 mph - 0.00 in Rain Light Rain
6:56 AM 39.9°F 37.0°F 89% 30.04 in 8.0 miles SE 5.8 mph - 0.00 in   Overcast
7:56 AM 39.9°F 37.0°F 89% 30.03 in 8.0 miles East 6.9 mph - N/A   Overcast
8:56 AM 41.0°F 37.9°F 89% 30.03 in 8.0 miles SE 10.4 mph - N/A   Overcast
9:10 AM 42.8°F 37.4°F 81% 30.02 in 8.0 miles SE 11.5 mph - 0.00 in Rain Light Rain
9:46 AM 42.8°F 39.2°F 87% 30.02 in 8.0 miles ESE 10.4 mph - 0.00 in   Overcast
9:56 AM 42.1°F 39.0°F 89% 30.03 in 9.0 miles ESE 8.1 mph - 0.00 in   Overcast
10:56 AM 43.0°F 39.0°F 86% 30.04 in 10.0 miles East 8.1 mph - N/A   Overcast
11:56 AM 44.1°F 37.0°F 76% 30.03 in 10.0 miles ESE 11.5 mph - N/A   Overcast
12:12 PM 44.6°F 37.4°F 76% 29.99 in 10.0 miles ESE 15.0 mph 23.0 mph N/A   Overcast
12:56 PM 44.1°F 36.0°F 73% 30.01 in 9.0 miles SE 13.8 mph - N/A   Overcast
1:27 PM 44.6°F 37.4°F 76% 30.00 in 10.0 miles SE 10.4 mph - N/A   Overcast
1:47 PM 44.6°F 37.4°F 76% 30.00 in 10.0 miles SE 9.2 mph - 0.00 in Rain Light Rain
1:56 PM 45.0°F 37.0°F 74% 30.01 in 10.0 miles SE 12.7 mph - 0.00 in Rain Light Rain
2:56 PM 45.0°F 37.0°F 74% 30.01 in 10.0 miles SE 11.5 mph - 0.00 in Rain Light Rain
3:26 PM 44.6°F 37.4°F 76% 29.99 in 10.0 miles SE 11.5 mph - 0.00 in   Overcast
3:56 PM 44.1°F 37.0°F 76% 30.01 in 10.0 miles SE 10.4 mph - 0.00 in Rain Light Rain
4:10 PM 44.6°F 37.4°F 76% 29.99 in 10.0 miles SE 10.4 mph - 0.00 in   Overcast
4:56 PM 44.1°F 37.9°F 79% 30.01 in 10.0 miles SE 9.2 mph - 0.00 in   Overcast
5:37 PM 42.8°F 37.4°F 81% 30.00 in 10.0 miles ESE 9.2 mph - N/A   Overcast
5:56 PM 43.0°F 37.0°F 80% 30.01 in 10.0 miles ESE 8.1 mph - N/A   Overcast
6:56 PM 41.0°F 36.0°F 82% 30.02 in 10.0 miles SE 9.2 mph - N/A   Mostly Cloudy
7:13 PM 42.8°F 35.6°F 76% 30.01 in 10.0 miles ESE 8.1 mph - N/A   Mostly Cloudy
7:38 PM 39.2°F 35.6°F 87% 30.01 in 10.0 miles East 9.2 mph - N/A   Mostly Cloudy
7:56 PM 37.9°F 34.0°F 86% 30.02 in 10.0 miles ESE 8.1 mph - N/A   Scattered Clouds
8:12 PM 39.2°F 35.6°F 87% 30.01 in 10.0 miles ESE 8.1 mph - N/A   Mostly Cloudy
8:56 PM 41.0°F 37.0°F 86% 30.03 in 10.0 miles East 5.8 mph - N/A   Mostly Cloudy
9:56 PM 41.0°F 36.0°F 82% 30.03 in 10.0 miles East 8.1 mph - N/A   Overcast
10:56 PM 39.0°F 35.1°F 86% 30.02 in 10.0 miles East 9.2 mph - N/A   Mostly Cloudy
11:56 PM 39.9°F 35.1°F 83% 30.02 in 10.0 miles East 8.1 mph - N/A   Mostly Cloudy
Moon Phase
Feb. 20 Feb. 25 Mar. 04 Mar. 11 Mar. 19
Sunrise:07:08 AM (PST) Moon Rise:12:52 PM (PST)2/20
Sunset:05:41 PM (PST) Moon Set:03:47 AM (PST)2/20

Copyright © 2014 The Weather Underground, Inc.